Location: Dover
(48.8500°N, 53.9833°W)
Time: 07:05:34
(UTC+00:00)

AQUARIUS - Pass Details

Date: 14 November 2025
Orbit: 634 x 636 km, 98.0° (Epoch: 12 December)

Event Time Altitude Azimuth Distance (km) Brightness Sun altitude
Rises 21:06:02 0° 160° (SSE) 2,924 7.5 -11.5°
Reaches altitude 10° 21:08:14 10° 159° (SSE) 2,019 6.6 -11.8°
Maximum altitude 21:12:37 76° 74° (ENE) 662 4.0 -12.5°
Drops below altitude 10° 21:17:03 10° 349° (N) 2,034 6.7 -13.2°
Sets 21:19:15 0° 348° (NNW) 2,947 7.5 -13.6°
